Weather History for KREO - May, 2013

Change the Weather History Date:

Friday, May 3, 2013

  Actual Average Record
Temperature  
Mean Temperature 53 °F 50 °F  
Max Temperature 75 °F 66 °F 90 °F (1966)
Min Temperature 30 °F 35 °F 28 °F (1969)
Degree Days  
Heating Degree Days 12 15  
Month to date heating degree days 55 45  
Since 1 July heating degree days 5990 6139  
Cooling Degree Days 0 0  
Month to date cooling degree days 0 0  
Year to date cooling degree days 0 0  
Growing Degree Days 2 (Base 50)    
Moisture  
Dew Point 16 °F    
Average Humidity 26    
Maximum Humidity 41    
Minimum Humidity 10    
Precipitation  
Precipitation 0.00 in 0.04 in 0.45 in (1984)
Month to date precipitation 0.00 0.12  
Year to date precipitation 1.60 3.49  
Sea Level Pressure  
Sea Level Pressure 30.11 in    
Wind  
Wind Speed 8 mph (North)    
Max Wind Speed 23 mph    
Max Gust Speed 37 mph    
T = Trace of Precipitation, MM = Missing Value Source: NWS Daily Summary

Daily Weather History Graph

Daily Weather History Graph

Search for Another Location

Airport or City:

Trip Planner

Search our weather history database for the weather conditions in past years. The results will help you decide how hot, cold, wet, or windy it might be!

Date:

Astronomy

May. 03, 2013 Rise Set
Actual Time 5:43 AM PDT 7:54 PM PDT
Civil Twilight 5:12 AM PDT 8:25 PM PDT
Nautical Twilight 4:33 AM PDT 9:03 PM PDT
Astronomical Twilight 3:51 AM PDT 9:46 PM PDT
Moon 2:18 AM PDT 1:46 PM PDT
Length of Visible Light 15h 13m
Length of Day
14h 11m
Waning Crescent, 36% of the Moon is Illuminated
May 3
Waning Crescent
May 9
New
May 17
First Quarter
May 24
Full
May 31
Last Quarter

Hourly Weather History & Observations

Time (PDT) Temp. Windchill Dew Point Humidity Pressure Visibility Wind Dir Wind Speed Gust Speed Precip Events Conditions
12:52 AM 41.0 °F - 9.0 °F 27% 30.24 in - Calm Calm - N/A   Unknown
1:52 AM 39.9 °F - 10.0 °F 29% 30.21 in - Calm Calm - N/A   Unknown
2:52 AM 36.0 °F - 9.0 °F 33% 30.21 in - Calm Calm - N/A   Unknown
3:52 AM 34.0 °F 26.6 °F 9.0 °F 35% 30.20 in - South 9.2 mph - N/A   Unknown
4:52 AM 32.0 °F 28.7 °F 8.1 °F 37% 30.21 in - SSE 3.5 mph - N/A   Unknown
5:52 AM 32.0 °F 28.7 °F 9.0 °F 38% 30.20 in - South 3.5 mph - N/A   Unknown
6:52 AM 42.1 °F - 12.0 °F 29% 30.18 in - Calm Calm - N/A   Unknown
7:52 AM 50.0 °F - 12.9 °F 23% 30.17 in - Calm Calm - N/A   Unknown
8:52 AM 55.0 °F - 12.0 °F 18% 30.17 in - Variable 3.5 mph - N/A   Unknown
9:52 AM 61.0 °F - 14.0 °F 16% 30.16 in - North 8.1 mph - N/A   Unknown
10:52 AM 64.9 °F - 14.0 °F 14% 30.15 in - Variable 5.8 mph - N/A   Unknown
11:52 AM 69.1 °F - 14.0 °F 12% 30.13 in - North 10.4 mph 16.1 mph N/A   Unknown
12:52 PM 71.1 °F - 12.0 °F 10% 30.10 in - NW 8.1 mph 17.3 mph N/A   Unknown
1:52 PM 72.0 °F - 15.1 °F 11% 30.08 in - Variable 4.6 mph 21.9 mph N/A   Unknown
2:52 PM 73.9 °F - 17.1 °F 12% 30.05 in - NNW 13.8 mph 18.4 mph N/A   Unknown
3:52 PM 73.0 °F - 17.1 °F 12% 30.04 in - NNW 8.1 mph 20.7 mph N/A   Unknown
4:52 PM 73.9 °F - 16.0 °F 11% 30.03 in - NNW 19.6 mph 27.6 mph N/A   Unknown
5:52 PM 73.0 °F - 19.0 °F 13% 30.02 in - NNW 15.0 mph - N/A   Unknown
6:52 PM 69.1 °F - 21.0 °F 16% 30.00 in - North 20.7 mph 26.5 mph N/A   Unknown
7:52 PM 64.0 °F - 24.1 °F 22% 30.01 in - NNE 16.1 mph 23.0 mph N/A   Unknown
8:52 PM 60.1 °F - 21.9 °F 23% 30.04 in - North 11.5 mph - N/A   Unknown
9:52 PM 55.0 °F - 23.0 °F 29% 30.06 in - North 8.1 mph - N/A   Unknown
10:52 PM 53.1 °F - 25.0 °F 34% 30.05 in - North 8.1 mph - N/A   Unknown
11:52 PM 52.0 °F - 28.0 °F 40% 30.03 in - North 11.5 mph - N/A   Unknown